Weather History for Gonzales, LA

Change the Weather History Date:

Wednesday, October 3, 2012

  Actual Average (KBTR) Record (KBTR)
Temperature  
Mean Temperature 71 °F 73 °F  
Max Temperature 83 °F 84 °F 96 °F (1904)
Min Temperature 59 °F 62 °F 45 °F (1908)
Degree Days  
Heating Degree Days 0 0  
Month to date heating degree days 0  
Since 1 July heating degree days 2  
Cooling Degree Days 6 9  
Month to date cooling degree days 27  
Year to date cooling degree days 2598  
Growing Degree Days 21 (Base 50)    
Moisture  
Dew Point 63 °F    
Average Humidity 78    
Maximum Humidity 99    
Minimum Humidity 51    
Precipitation  
Precipitation 0.00 in 0.14 in 4.84 in (1964)
Month to date precipitation 0.42  
Year to date precipitation 46.67  
Snow  
Snow - - - ()
Month to date snowfall  
Since 1 July snowfall  
Since 1 September snowfall  
Snow Depth -    
Sea Level Pressure  
Sea Level Pressure 30.04 in    
Wind  
Wind Speed 1 mph ()    
Max Wind Speed 8 mph    
Max Gust Speed -    
Visibility 9.2 miles    
Events Thunderstorm    
T = Trace of Precipitation, MM = Missing Value Source: Averaged Metar Reports

Daily Weather History Graph

Daily Weather History Graph

Search for Another Location

Airport:

Trip Planner

Search our weather history database for the weather conditions in past years. The results will help you decide how hot, cold, wet, or windy it might be!

Date:

Astronomy

Oct. 03, 2012 Rise Set
Actual Time 6:58 AM CDT 6:46 PM CDT
Civil Twilight 6:34 AM CDT 7:10 PM CDT
Nautical Twilight 6:06 AM CDT 7:37 PM CDT
Astronomical Twilight 5:39 AM CDT 8:05 PM CDT
Moon 8:56 PM CDT (10/3) 10:05 AM CDT (10/3)
Length of Visible Light 12h 35m
Length of Day
11h 47m
Waning Gibbous, 88% of the Moon is Illuminated
Oct 3
Waning Gibbous
Oct 8
Last Quarter
Oct 15
New
Oct 21
First Quarter
Oct 29
Full

Hourly Weather History & Observations

Time (CDT) Temp. Heat Index Dew Point Humidity Pressure Visibility Wind Dir Wind Speed Gust Speed Precip Events Conditions
12:15 AM 62.8 °F - 61.5 °F 96% 29.98 in 10.0 mi Calm Calm - N/A   Clear
12:35 AM 61.9 °F - 61.2 °F 97% 29.98 in 10.0 mi Calm Calm - N/A   Clear
12:55 AM 62.2 °F - 61.7 °F 98% 29.98 in 10.0 mi Calm Calm - N/A   Clear
1:15 AM 61.3 °F - 60.4 °F 97% 29.98 in 10.0 mi Calm Calm - N/A   Clear
1:35 AM 61.0 °F - 60.4 °F 98% 29.98 in 7.0 mi Calm Calm - N/A   Clear
1:55 AM 60.8 °F - 60.3 °F 98% 29.98 in 7.0 mi Calm Calm - N/A   Clear
2:15 AM 60.6 °F - 60.1 °F 98% 29.98 in 7.0 mi Calm Calm - N/A   Clear
4:15 AM 59.4 °F - 59.0 °F 99% 29.98 in 7.0 mi Calm Calm - N/A   Clear
4:35 AM 60.4 °F - 59.9 °F 98% 29.98 in 10.0 mi Calm Calm - N/A   Clear
4:55 AM 60.1 °F - 59.4 °F 97% 29.99 in 10.0 mi Calm Calm - N/A   Clear
5:15 AM 59.9 °F - 59.0 °F 97% 29.99 in 10.0 mi Calm Calm - N/A   Clear
5:55 AM 59.4 °F - 59.0 °F 99% 30.00 in 5.0 mi Calm Calm - N/A   Clear
6:15 AM 59.2 °F - 59.0 °F 99% 30.00 in 5.0 mi Calm Calm - N/A   Clear
6:35 AM 59.7 °F - 59.4 °F 99% 30.00 in 5.0 mi Calm Calm - N/A   Clear
6:55 AM 59.9 °F - 59.5 °F 99% 30.01 in 5.0 mi Calm Calm - N/A   Clear
7:15 AM 60.3 °F - 59.9 °F 99% 30.01 in 4.0 mi Calm Calm - N/A   Clear
7:35 AM 61.9 °F - 61.0 °F 97% 30.01 in 7.0 mi Calm Calm - N/A   Clear
7:55 AM 63.0 °F - 61.7 °F 96% 30.02 in 7.0 mi Calm Calm - N/A Thunderstorm Clear
8:15 AM 65.7 °F - 63.0 °F 91% 30.03 in 10.0 mi Calm Calm - N/A   Clear
8:35 AM 68.0 °F - 64.4 °F 88% 30.04 in 10.0 mi Calm Calm - N/A   Clear
8:55 AM 71.2 °F - 64.6 °F 79% 30.04 in 10.0 mi East 3.5 mph - N/A   Clear
9:15 AM 72.1 °F - 65.8 °F 80% 30.05 in 10.0 mi WNW 4.6 mph - N/A   Scattered Clouds
9:35 AM 72.9 °F - 64.8 °F 76% 30.06 in 10.0 mi Calm Calm - N/A Thunderstorm Mostly Cloudy
9:55 AM 73.8 °F - 64.6 °F 73% 30.06 in 10.0 mi East 3.5 mph - N/A Thunderstorm Mostly Cloudy
10:15 AM 75.6 °F - 64.8 °F 69% 30.06 in 10.0 mi East 5.8 mph - N/A   Clear
10:35 AM 76.8 °F - 64.6 °F 66% 30.06 in 10.0 mi ESE 4.6 mph - N/A   Clear
10:55 AM 77.9 °F - 63.7 °F 61% 30.06 in 10.0 mi SE 4.6 mph - N/A   Clear
11:15 AM 78.1 °F - 63.7 °F 61% 30.06 in 10.0 mi ESE 4.6 mph - N/A   Clear
11:35 AM 79.7 °F - 64.6 °F 60% 30.06 in 10.0 mi SE 8.1 mph - N/A   Clear
11:55 AM 79.2 °F - 64.8 °F 61% 30.06 in 10.0 mi ESE 3.5 mph - N/A   Scattered Clouds
12:15 PM 80.2 °F 82.2 °F 65.5 °F 61% 30.05 in 10.0 mi ESE 4.6 mph - N/A   Scattered Clouds
12:35 PM 81.0 °F 82.9 °F 65.5 °F 59% 30.05 in 10.0 mi SE 5.8 mph - N/A   Scattered Clouds
12:55 PM 81.5 °F 83.3 °F 64.8 °F 57% 30.04 in 10.0 mi South 5.8 mph - N/A   Mostly Cloudy
1:15 PM 80.8 °F 82.4 °F 64.2 °F 57% 30.03 in 10.0 mi SSE 4.6 mph - N/A   Scattered Clouds
1:35 PM 82.0 °F 83.3 °F 63.3 °F 53% 30.03 in 10.0 mi South 6.9 mph - N/A   Mostly Cloudy
1:55 PM 81.0 °F 82.2 °F 63.1 °F 54% 30.02 in 10.0 mi SSE 4.6 mph - N/A Thunderstorm Thunderstorm
2:15 PM 83.1 °F 84.2 °F 63.1 °F 51% 30.02 in 10.0 mi South 6.9 mph - N/A   Mostly Cloudy
2:35 PM 81.5 °F 82.4 °F 61.9 °F 51% 30.02 in 10.0 mi SW 3.5 mph - N/A   Scattered Clouds
2:55 PM 80.6 °F 81.8 °F 62.4 °F 54% 30.01 in 10.0 mi Calm Calm - N/A   Scattered Clouds
3:15 PM 82.2 °F 83.2 °F 62.6 °F 51% 30.01 in 10.0 mi SSE 3.5 mph - N/A   Scattered Clouds
3:35 PM 81.1 °F 82.1 °F 62.2 °F 52% 30.01 in 10.0 mi SW 3.5 mph - N/A   Scattered Clouds
3:55 PM 79.9 °F - 65.3 °F 61% 30.01 in 10.0 mi Calm Calm - N/A   Mostly Cloudy
4:15 PM 81.3 °F 82.9 °F 64.4 °F 56% 30.01 in 10.0 mi Calm Calm - N/A   Overcast
4:35 PM 82.6 °F 84.1 °F 64.6 °F 54% 30.02 in 10.0 mi South 4.6 mph - N/A   Overcast
4:55 PM 81.3 °F 83.0 °F 64.9 °F 57% 30.02 in 10.0 mi SW 3.5 mph - N/A   Scattered Clouds
5:15 PM 81.5 °F 82.8 °F 63.3 °F 54% 30.02 in 10.0 mi SW 3.5 mph - N/A   Scattered Clouds
5:55 PM 78.8 °F - 66.2 °F 65% 30.03 in 10.0 mi Calm Calm - N/A   Scattered Clouds
6:15 PM 78.4 °F - 64.8 °F 63% 30.04 in 10.0 mi SSE 4.6 mph - N/A   Scattered Clouds
6:35 PM 77.4 °F - 64.8 °F 65% 30.04 in 10.0 mi SE 4.6 mph - N/A   Clear
6:55 PM 76.1 °F - 65.5 °F 70% 30.05 in 10.0 mi ESE 3.5 mph - N/A   Clear
7:15 PM 74.8 °F - 65.5 °F 73% 30.05 in 10.0 mi ESE 3.5 mph - N/A   Clear
7:35 PM 73.4 °F - 66.2 °F 78% 30.06 in 10.0 mi Calm Calm - N/A   Clear
7:55 PM 72.3 °F - 66.4 °F 82% 30.06 in 10.0 mi Calm Calm - N/A   Clear
8:15 PM 71.8 °F - 66.2 °F 83% 30.07 in 10.0 mi Calm Calm - N/A   Clear
8:35 PM 71.4 °F - 65.8 °F 82% 30.08 in 10.0 mi Calm Calm - N/A   Clear
8:55 PM 70.3 °F - 66.2 °F 87% 30.08 in 10.0 mi Calm Calm - N/A   Clear
9:15 PM 70.0 °F - 65.5 °F 86% 30.09 in 10.0 mi Calm Calm - N/A   Clear
9:35 PM 70.0 °F - 65.7 °F 86% 30.09 in 10.0 mi Calm Calm - N/A   Clear
9:55 PM 67.8 °F - 65.8 °F 93% 30.10 in 10.0 mi Calm Calm - N/A   Clear
10:15 PM 68.0 °F - 66.0 °F 93% 30.10 in 10.0 mi Calm Calm - N/A   Clear
10:35 PM 67.6 °F - 66.0 °F 95% 30.11 in 10.0 mi Calm Calm - N/A   Clear
10:55 PM 66.9 °F - 65.7 °F 96% 30.11 in 10.0 mi Calm Calm - N/A   Clear
11:15 PM 67.1 °F - 65.7 °F 95% 30.11 in 10.0 mi Calm Calm - N/A   Clear
11:35 PM 66.2 °F - 65.5 °F 98% 30.11 in 7.0 mi Calm Calm - N/A   Clear
11:55 PM 66.0 °F - 65.5 °F 98% 30.11 in 7.0 mi Calm Calm - N/A   Clear